Location: Bonac
(42.8765°N, 0.9753°E)
Time: 09:35:17
(UTC+00:00)

CZ-4 R/B - Pass Details

Date: 12 January 2026
Orbit: 547 x 553 km, 97.6° (Epoch: 11 February)

Event Time Altitude Azimuth Distance (km) Brightness Sun altitude
Rises 18:10:28 0° 170° (S) 2,708 7.9 -15.5°
Reaches altitude 10° 18:12:35 10° 172° (S) 1,821 7.1 -15.9°
Maximum altitude 18:16:30 74° 258° (WSW) 578 4.5 -16.6°
Drops below altitude 10° 18:20:29 10° 344° (NNW) 1,840 7.0 -17.3°
Sets 18:22:38 0° 346° (NNW) 2,740 7.9 -17.7°
